{"data":{"norad_id":48642,"epoch":"2026-09-19T16:50:38.884416Z","epoch_age_seconds":106202,"freshness":"FRESH","line1":"1 48642U 21044E   26262.70183894 -.00001248  00000+0 -28460-4 0  9993","line2":"2 48642  53.1586 291.0399 0001093  67.0466 293.0651 15.31704313293557","mean_motion":15.31704313,"eccentricity":0.0001093,"inclination_deg":53.1586,"raan_deg":291.0399,"arg_perigee_deg":67.0466,"mean_anomaly_deg":293.0651,"bstar":-2.846e-5,"rev_number":29355,"period_min":94.012923237097,"perigee_km":469.97855757692,"apogee_km":471.47571927758,"semimajor_km":6848.8641384272,"source":"CELESTRAK","updated_at":"2026-09-20T09:00:39.140337Z"}}